Location: Vancouver
(49.2500°N, 123.1330°W)
Time: 05:47:51
(UTC-07:00)

S-56A Canister/Altair - Visible Passes

Search period start: 31 October 2014 00:00
Search period end: 09 November 2014 23:00
Orbit: 632 x 2503 km, 38.9° (Epoch: 29 October)

Date Brightness Start Highest point End Pass type
(mag) Time Alt. Az. Time Alt. Az. Time Alt. Az.
31 Oct 11.3 00:17:35 10° W 00:20:33 17° W 00:20:33 17° W visible
31 Oct 10.3 19:31:51 10° WSW 19:46:03 53° S 19:55:00 25° ESE visible
31 Oct 10.0 21:37:19 10° W 21:51:38 52° SSW 21:52:27 52° S visible
31 Oct 11.0 23:44:11 10° W 23:49:53 24° WSW 23:49:53 24° WSW visible
01 Nov 10.4 18:59:09 10° SW 19:13:04 52° SSE 19:24:21 17° E visible
01 Nov 10.0 21:04:16 10° W 21:18:43 54° S 21:21:47 48° SSE visible
01 Nov 10.7 23:10:52 10° W 23:19:14 31° WSW 23:19:14 31° WSW visible
02 Nov 10.5 17:26:33 10° SW 17:40:05 50° SSE 17:53:42 10° E visible
02 Nov 10.1 19:31:19 10° WSW 19:45:46 55° S 19:51:09 39° SE visible
02 Nov 10.5 21:37:36 10° W 21:48:36 38° SW 21:48:36 38° SW visible
03 Nov 10.2 18:58:26 10° WSW 19:12:46 56° S 19:20:32 30° ESE visible
03 Nov 10.3 21:04:26 10° W 21:17:59 43° SSW 21:17:59 43° SSW visible
03 Nov 11.4 23:12:41 10° W 23:15:26 15° WSW 23:15:26 15° WSW visible
04 Nov 10.3 18:25:39 10° WSW 18:39:44 56° S 18:49:57 22° ESE visible
04 Nov 10.2 20:31:20 10° W 20:45:12 46° SSW 20:47:25 43° S visible
04 Nov 11.2 22:38:59 10° W 22:44:52 20° WSW 22:44:52 20° WSW visible
05 Nov 10.4 17:52:58 10° WSW 18:06:43 56° S 18:19:25 14° ESE visible
05 Nov 10.3 19:58:20 10° W 20:12:19 48° SSW 20:16:53 39° SSE visible
05 Nov 11.0 22:05:28 10° W 22:14:20 25° SW 22:14:20 25° SW visible
06 Nov 10.4 17:20:22 10° WSW 17:33:42 56° S 17:48:00 10° ESE visible
06 Nov 10.4 19:25:25 10° W 19:39:22 50° SSW 19:46:24 31° SE visible
06 Nov 10.8 21:32:06 10° W 21:43:52 29° SW 21:43:52 29° SW visible
07 Nov 10.4 18:52:35 10° W 19:06:24 52° SSW 19:16:00 23° SE visible
07 Nov 10.7 20:58:52 10° W 21:11:12 32° SW 21:13:28 31° SSW visible
08 Nov 10.5 18:19:51 10° W 18:33:24 53° SSW 18:45:41 15° SE visible
08 Nov 10.7 20:25:44 10° W 20:38:27 35° SSW 20:43:10 29° S visible
08 Nov 11.5 22:36:01 10° WSW 22:40:38 13° WSW 22:40:38 13° WSW visible
09 Nov 10.5 17:47:12 10° W 18:00:24 54° S 18:14:40 10° ESE visible
09 Nov 10.7 19:52:44 10° W 20:05:38 38° SSW 20:12:57 25° SSE visible
09 Nov 11.3 22:01:39 10° W 22:09:12 16° SW 22:10:27 16° SW visible
